Simultaneous Nadir Overpasses (SNOs) Predictions

Prediction of SNOs between AQUA and GOES-15 Satellite Orbit:

Table of predicted SNOs for the next 14.0 days since TLE Epoch: 8/31/2013
Index Date Time (AQUA) AQUA Lat,Lon GOES-15 Lat,Lon Distance(km) Time Diff (sec)
1 08/31/2013 10:31:54 0.16,-134.05 0.42,-135.38 149.93 80
2 08/31/2013 22:53:17 -1.24,-139.25 -0.41,-135.32 446.64 80
3 09/02/2013 10:19:40 -0.48,-131.09 0.42,-135.42 491.39 80
4 09/02/2013 22:41:03 -0.60,-136.28 -0.41,-135.36 105.10 80
5 09/04/2013 22:28:49 0.06,-133.32 -0.41,-135.39 236.10 80
6 09/05/2013 10:50:04 1.02,-138.48 0.39,-135.47 341.46 80
7 09/07/2013 10:37:49 0.41,-135.51 0.40,-135.50 1.38 80
8 09/09/2013 10:25:34 -0.22,-132.54 0.40,-135.52 338.86 80
9 09/09/2013 22:46:58 -0.84,-137.73 -0.38,-135.45 259.29 80
10 09/11/2013 22:34:42 -0.26,-134.75 -0.38,-135.46 79.54 80
11 09/12/2013 10:55:58 1.27,-139.92 0.36,-135.54 497.95 80
12 09/13/2013 22:22:27 0.40,-131.79 -0.38,-135.46 417.61 80




NCC Satellite Simultaneous Nadir Overpasses (SNOs) Prediction Service
